ELEKTRON 1 DEB *, 18589

Orbit data source: Space-Track

ELEKTRON 1 DEB *, 18589 is space debris in LEO originally from a launch on Thu, 30 Jan 1964 UTC launched from the Tyuratam Missile And Space Complex (TTMTR). Debris objects in space refer to the collection of defunct objects orbiting the Earth. Examples of debris include non-operational satellites, rocket bodies, and fragments generated from explosions, collisions, or faulty payload assembly.

Loading next visibility...
Identifier
18589, 1964-006N
Orbit
LEO
Country
Flag of CISCIS
Related business
Manufacturer
Unknown
Mission
Spacecraft
Bus & Motor
Unknown
Mass
Unknown
Launch date (UTC)
1964-01-30 (62 years ago)
Launch vehicle
Unknown
Launch site
Tyuratam Missile And Space Complex (TTMTR)
Object type
Payload
Rocket body
Debris
Shape & HBR
Unknown shape, 0.1 m
Radar Cross Section
Small (<0.1 m²)

Expand to show TLE details & history
Last TLE update: 4 days ago

TLE from 4 days ago
0 ELEKTRON 1 DEB *
1 18589U 64006N   26122.87815461  .00000488  00000-0  19869-2 0  9995
2 18589  58.9259  30.4723 2101196  14.1105 351.0206  9.98139477434467
Epoch: 2026-05-02T21:04Z
TLE epoch observation values (Epoch: 2026-05-02T21:04:32.558Z)
Latitude
-0.00002°
Longitude
-146.45311°
Altitude
857.62 km
Speed
8.153 km/s
True Right ascension
02h 01m 53s
True Declination
0° 00' 00"
Sunlit
Object was in daylight at epoch
Visualization orbit readout
Latitude
Unknown
Longitude
Unknown
Altitude
Unknown
Speed
Unknown
Apparent Right ascension
Unknown
Apparent Declination
Unknown
Sunlit
N/A
Visualization observer readout
Local Sidereal Time
07:41:16
Azimuth
Unknown
Elevation
Unknown
Doppler factor
Unknown
Orbital elements
Apogee altitude
4,647.698 km
Perigee altitude
818.748 km
Semi-major axis
9,111.36 km
Eccentricity
0.21012
Inclination
58.9259°
RAAN
30.4723°
Arg. of periapsis
14.1105°
True anomaly
345.97787°
Mean anomaly
351.0206°
Eccentric anomaly
348.65165°
Mean motion
2.49556 °/min
Orbital period
144.26 mins
BSTAR
0.0019869
Loading maneuver chart data...
Computing Atmospheric mass density...

Documentation

Showing up to 5 results
|